Weather History for KENW - March, 2013

Change the Weather History Date:

Monday, March 4, 2013

  Actual Average Record
Temperature  
Mean Temperature 19 °F -  
Max Temperature 33 °F 39 °F 56 °F (1968)
Min Temperature 5 °F 24 °F -11 °F (2002)
Degree Days  
Heating Degree Days 46    
Moisture  
Dew Point 16 °F    
Average Humidity 73    
Maximum Humidity 88    
Minimum Humidity 59    
Precipitation  
Precipitation 0.00 in - - ()
Sea Level Pressure  
Sea Level Pressure 30.11 in    
Wind  
Wind Speed 6 mph (East)    
Max Wind Speed 16 mph    
Max Gust Speed -    
Visibility 9 miles    
Events      
Averages and records for this station are not official NWS values.
T = Trace of Precipitation, MM = Missing Value Source: NWS Daily Summary

Daily Weather History Graph

Daily Weather History Graph

Search for Another Location

Airport or City:

Trip Planner

Search our weather history database for the weather conditions in past years. The results will help you decide how hot, cold, wet, or windy it might be!

Date:

Astronomy

Mar. 04, 2013 Rise Set
Actual Time 6:21 AM CST 5:45 PM CST
Civil Twilight 5:53 AM CST 6:13 PM CST
Nautical Twilight 5:21 AM CST 6:46 PM CST
Astronomical Twilight 4:48 AM CST 7:19 PM CST
Moon 12:36 AM CST (3/4) 10:21 AM CST (3/4)
Length of Visible Light 12h 19m
Length of Day
11h 23m
Waning Gibbous, 52% of the Moon is Illuminated
Mar 4
Waning Gibbous
Mar 4
Last Quarter
Mar 11
New
Mar 19
First Quarter
Mar 27
Full

Hourly Weather History & Observations

Time (CST) Temp. Windchill Dew Point Humidity Pressure Visibility Wind Dir Wind Speed Gust Speed Precip Events Conditions
12:53 AM 7.0 °F - 1.0 °F 77% 30.14 in 8.0 mi Calm Calm - N/A   Clear
1:53 AM 5.0 °F - 1.9 °F 87% 30.15 in 7.0 mi Calm Calm - N/A   Clear
2:53 AM 6.1 °F -0.9 °F 1.9 °F 83% 30.15 in 7.0 mi West 3.5 mph - N/A   Clear
3:53 AM 5.0 °F -2.1 °F 1.9 °F 87% 30.15 in 7.0 mi WNW 3.5 mph - N/A   Clear
4:53 AM 9.0 °F - 3.9 °F 80% 30.16 in 7.0 mi Calm Calm - N/A   Clear
6:53 AM 10.0 °F - 5.0 °F 80% 30.15 in 6.0 mi Calm Calm - N/A   Haze
7:53 AM 12.9 °F - 10.0 °F 88% 30.15 in 6.0 mi Calm Calm - N/A   Clear
8:53 AM 19.9 °F - 14.0 °F 78% 30.15 in 8.0 mi Calm Calm - N/A   Scattered Clouds
9:53 AM 28.9 °F 19.2 °F 19.0 °F 67% 30.14 in 10.0 mi East 11.5 mph - N/A   Scattered Clouds
10:53 AM 30.0 °F 20.5 °F 19.0 °F 64% 30.14 in 10.0 mi ESE 11.5 mph - N/A   Scattered Clouds
11:53 AM 30.9 °F 21.7 °F 19.9 °F 64% 30.12 in 10.0 mi ESE 11.5 mph - N/A   Scattered Clouds
12:01 PM 30.2 °F 20.8 °F 19.4 °F 64% 30.08 in 10.0 mi East 11.5 mph - N/A   Mostly Cloudy
12:53 PM 30.9 °F 21.7 °F 21.0 °F 67% 30.12 in 10.0 mi SE 11.5 mph - N/A   Mostly Cloudy
1:53 PM 30.9 °F 22.2 °F 21.0 °F 67% 30.09 in 10.0 mi East 10.4 mph - N/A   Overcast
2:53 PM 30.0 °F 19.5 °F 21.0 °F 69% 30.09 in 10.0 mi East 13.8 mph - N/A   Overcast
3:53 PM 28.9 °F 19.8 °F 21.0 °F 72% 30.09 in 10.0 mi East 10.4 mph - N/A   Overcast
4:53 PM 28.9 °F 17.3 °F 21.9 °F 75% 30.07 in 10.0 mi ENE 16.1 mph - N/A   Overcast
5:04 PM 28.4 °F 16.6 °F 21.2 °F 74% 30.03 in 10.0 mi ENE 16.1 mph - N/A   Overcast
5:53 PM 28.0 °F 18.1 °F 21.9 °F 78% 30.07 in 10.0 mi ENE 11.5 mph - N/A   Overcast
6:53 PM 28.9 °F 20.4 °F 21.9 °F 75% 30.09 in 10.0 mi ENE 9.2 mph - N/A   Overcast
7:53 PM 28.9 °F 20.4 °F 21.9 °F 75% 30.08 in 10.0 mi ENE 9.2 mph - N/A   Overcast
8:53 PM 30.9 °F 22.2 °F 23.0 °F 72% 30.08 in 10.0 mi East 10.4 mph - N/A   Overcast
9:53 PM 32.0 °F 24.2 °F 23.0 °F 69% 30.08 in 10.0 mi East 9.2 mph - N/A   Overcast
10:53 PM 33.1 °F 24.4 °F 23.0 °F 66% 30.06 in 10.0 mi East 11.5 mph - N/A   Overcast
11:53 PM 33.1 °F 24.9 °F 19.9 °F 59% 30.05 in 10.0 mi ESE 10.4 mph - N/A   Overcast